Terug naar catalogus

DELTA 1 DEB

ActiefSSO
NORAD 40756·DEBRIS·🇺🇸 United States

Gelanceerd Jul 29, 1976 vanaf Vandenberg Space Force Base

Loading…

Volgende Passages (komende 24 uur)

TLE

VersSource: Space-Track

Epoch: Sep 13, 2026, 04:31 UTC

1 40756U 76077FZ  26256.18834434 -.00000049  00000-0 -25216-4 0  9990
2 40756 102.5818 241.6706 0077050 220.5992 153.2342 12.25958732967324

Volg DELTA 1 DEB in realtime met AllMySat

Download on the App Store